ABS 7 (KOREASAT 3)

导读 | 豆包AI

ABS 7(原称KOREASAT 3)是由韩国参与运营的商用通信卫星,1999年9月4日由阿丽亚娜空间公司发射,采用洛克希德·马丁A2100平台制造,定点东经116°地球静止轨道。卫星配备Ku和Ka波段转发器,覆盖亚太、中东地区,可提供广播通信、蜂窝回传、宽带接入及VSAT服务,设计服役寿命超15年,后期由亚洲广播卫星公司接手运营。

Basic Information
目录编号:
25894
目录名称:
ABS 7 (KOREASAT 3)
国际标识:
1999-046A
轨道中心:
EARTH
卫星名称:
ABS 7 (KOREASAT 3)
卫星全名:
--
卫星状态:
在轨 (已飞行9735 天)
发射日期:
1999-09-04 UTC
国别 :
韩国 (KR)
星等 :
--
Orbit Information
数据来源 国际轨道数据 AOE轨道数据
星历时间 2026-04-30T17:39:48+0800
12小时前
查看轨道信息
2026-05-01T01:00:00+0800
5小时前
查看轨道信息
半长轴 42247.18km 42247.208km
偏心率 0.000307 0.0003081
轨道倾角 6.360° 6.360°
近地点辐角 307.051° 308.128°
升交点赤经 71.332° 71.330°
平近点角 129.588° 238.540°
近地点 35856.073km 35856.054km
远地点 35882.013km 35882.088km
周期 1440.311分钟 1440.313分钟
每日圈数 0.999784 0.999783
Detailed Information
使用方式:
暂无
2D Orbit Map
3D Orbit Map
Orbit Altitude Analysis Chart
Orbit Inclination Analysis Chart
Orbit Comprehensive Analysis Chart
View Comprehensive Chart